TimeMST,TemperatureF,Dew PointF,Humidity,Sea Level PressureIn,VisibilityMPH,Wind Direction,Wind SpeedMPH,Gust SpeedMPH,PrecipitationIn,Events,Conditions,WindDirDegrees,DateUTC
12:53 AM,42.1,30.0,62,29.68,10.0,West,11.5,-,N/A,,Partly Cloudy,260,2012-12-03 07:53:00
1:53 AM,43.0,24.1,47,29.73,10.0,North,15.0,27.6,N/A,,Overcast,10,2012-12-03 08:53:00
2:53 AM,41.0,23.0,49,29.78,10.0,Calm,Calm,-,N/A,,Mostly Cloudy,0,2012-12-03 09:53:00
3:53 AM,37.9,23.0,55,29.86,10.0,Calm,Calm,-,N/A,,Partly Cloudy,0,2012-12-03 10:53:00
4:53 AM,37.0,19.0,48,29.89,10.0,West,10.4,-,N/A,,Clear,260,2012-12-03 11:53:00
6:53 AM,30.0,21.0,69,29.97,10.0,South,6.9,-,N/A,,Clear,180,2012-12-03 13:53:00
8:53 AM,32.0,25.0,75,30.03,10.0,Calm,Calm,-,N/A,,Clear,0,2012-12-03 15:53:00
9:53 AM,36.0,26.1,67,30.05,10.0,South,4.6,-,N/A,,Clear,170,2012-12-03 16:53:00
10:53 AM,42.1,18.0,38,30.04,10.0,East,4.6,-,N/A,,Clear,100,2012-12-03 17:53:00
11:53 AM,46.0,15.1,29,30.03,10.0,Calm,Calm,-,N/A,,Clear,0,2012-12-03 18:53:00
12:53 PM,46.9,15.1,28,30.02,10.0,SSE,4.6,-,N/A,,Clear,160,2012-12-03 19:53:00
1:53 PM,46.9,12.9,25,30.01,10.0,Calm,Calm,-,N/A,,Clear,0,2012-12-03 20:53:00
2:53 PM,46.9,14.0,27,30.02,10.0,SE,4.6,-,N/A,,Clear,140,2012-12-03 21:53:00
3:53 PM,46.9,14.0,27,30.05,10.0,Calm,Calm,-,N/A,,Clear,0,2012-12-03 22:53:00
4:53 PM,37.0,19.0,48,30.09,10.0,Calm,Calm,-,N/A,,Clear,0,2012-12-03 23:53:00
5:53 PM,33.1,18.0,54,30.17,10.0,ESE,4.6,-,N/A,,Clear,110,2012-12-04 00:53:00
6:53 PM,32.0,17.1,54,30.19,10.0,Calm,Calm,-,N/A,,Clear,0,2012-12-04 01:53:00
7:53 PM,25.0,17.1,72,30.25,10.0,SSE,3.5,-,N/A,,Clear,160,2012-12-04 02:53:00
8:53 PM,28.0,18.0,66,30.26,10.0,SSW,5.8,-,N/A,,Clear,210,2012-12-04 03:53:00
9:53 PM,27.0,18.0,69,30.26,10.0,South,8.1,-,N/A,,Clear,180,2012-12-04 04:53:00
11:53 PM,24.1,18.0,77,30.26,10.0,South,6.9,-,N/A,,Clear,190,2012-12-04 06:53:00